EDT,Max TemperatureF,Mean TemperatureF,Min TemperatureF,Max Dew PointF,MeanDew PointF,Min DewpointF,Max Humidity, Mean Humidity, Min Humidity, Max Sea Level PressureIn, Mean Sea Level PressureIn, Min Sea Level PressureIn, Max VisibilityMiles, Mean VisibilityMiles, Min VisibilityMiles, Max Wind SpeedMPH, Mean Wind SpeedMPH, Max Gust SpeedMPH,PrecipitationIn, CloudCover, Events, WindDirDegrees
2013-3-1,41,38,34,30,26,24,76,63,55,30.04,30.01,29.99,10,10,9,14,10,20,0.00,8,,304
2013-3-2,39,36,34,29,27,22,82,70,57,30.06,30.01,29.97,10,10,9,16,11,23,0.00,8,,305
2013-3-3,39,34,28,23,19,17,69,57,41,30.13,30.08,30.04,10,10,10,20,12,28,0.00,3,,308
2013-3-4,57,42,27,29,21,14,72,45,23,30.22,30.13,30.04,10,10,10,9,4,,0.00,0,,255
2013-3-5,64,52,39,56,44,27,90,70,51,30.07,29.89,29.70,10,9,2,26,10,41,0.22,7,Rain,226
2013-3-6,42,36,30,30,25,18,87,64,53,30.22,30.08,29.90,10,9,2,25,17,44,0.00,6,Snow,312
2013-3-7,57,44,30,29,28,26,82,59,33,30.29,30.24,30.20,10,10,9,12,7,,0.00,0,,308
2013-3-8,63,46,28,29,25,21,89,48,23,30.34,30.27,30.23,10,10,8,10,4,,0.00,0,,319
2013-3-9,61,48,36,31,27,24,73,41,29,30.35,30.26,30.21,10,10,10,8,3,,0.00,0,,112
2013-3-10,69,58,48,45,34,28,64,40,23,30.22,30.14,30.07,10,10,9,15,6,22,0.00,0,,121
2013-3-11,66,57,48,56,52,45,100,89,63,30.07,29.90,29.82,10,6,2,16,9,25,1.20,6,Rain,92
2013-3-12,57,48,39,46,36,30,97,69,39,30.12,29.96,29.85,10,10,5,17,11,29,0.04,4,Rain,304
2013-3-13,55,46,37,32,26,20,76,50,29,30.29,30.18,30.12,10,10,10,21,8,33,0.00,0,,293
2013-3-14,55,40,28,22,17,12,64,41,20,30.41,30.31,30.26,10,10,10,20,12,28,0.00,0,,319
2013-3-15,73,53,33,41,34,25,89,50,28,30.25,30.14,30.00,10,10,10,17,6,25,0.00,0,,244
2013-3-16,77,63,51,41,39,34,68,42,22,30.01,29.95,29.87,10,10,10,21,10,29,0.00,0,,238
2013-3-17,71,60,52,52,48,41,80,62,47,30.01,29.95,29.91,10,10,10,16,8,17,0.00,1,,216
2013-3-18,60,52,46,56,50,44,100,90,78,29.99,29.91,29.83,10,7,1,28,5,38,0.49,7,Rain,111
2013-3-19,63,53,44,46,36,25,100,64,26,30.08,30.01,29.89,10,8,2,17,7,24,0.00,2,,328
2013-3-20,57,50,42,26,19,15,46,32,20,30.14,30.04,29.93,10,10,10,22,8,30,0.00,1,,317
2013-3-21,48,39,30,28,16,5,73,42,21,30.01,29.97,29.93,10,10,10,21,11,28,0.00,0,,317
2013-3-22,51,44,37,33,25,15,59,48,38,30.09,30.04,29.99,10,10,10,7,3,,0.00,7,,102
2013-3-23,55,48,42,49,44,34,100,88,61,30.03,29.92,29.77,10,6,2,8,3,17,0.91,8,Rain-Thunderstorm,71
2013-3-24,51,48,43,48,45,30,100,92,60,29.79,29.64,29.54,10,7,2,18,7,29,1.06,8,Rain-Thunderstorm,70
2013-3-25,41,38,35,28,23,20,63,56,47,30.11,29.91,29.73,10,10,10,22,18,36,0.00,8,,287
2013-3-26,42,36,32,27,24,21,72,61,49,30.32,30.17,30.04,10,10,10,17,12,25,0.00,7,,303
2013-3-27,54,41,28,26,24,21,82,54,31,30.38,30.32,30.27,10,10,8,16,7,25,0.00,0,,306
2013-3-28,61,45,30,31,26,18,85,51,23,30.37,30.31,30.26,10,10,7,18,4,24,0.00,0,,323
2013-3-29,66,50,35,37,31,25,89,52,27,30.35,30.27,30.18,10,10,8,7,2,,0.00,3,,122
2013-3-30,73,60,48,55,43,32,100,62,36,30.19,30.10,30.02,10,8,2,12,3,,0.32,6,Rain,331
2013-3-31,69,62,55,57,55,51,100,85,59,30.03,29.95,29.86,10,7,2,17,6,25,0.08,8,Rain,222